Voltar ao catálogo

STARLINK-34755

AtivoComunicaçõesSSO
NORAD 64940·PAYLOAD·🇺🇸 United States

Lançado Jul 26, 2025 de Vandenberg Space Force Base

Loading…

Próximas Passagens (próximas 24 horas)

TLE

AtualizadoSource: CelesTrak SupGP

Época: Sep 14, 2026, 21:15 UTC

1 64940C 25158J   26257.88590278  .02447500  00000+0  87100-1 0  2578
2 64940  97.2845 116.2518 0001336  82.7885 178.3578 15.27798221    19

Acompanhe STARLINK-34755 em tempo real com AllMySat

Download on the App Store